Time,TemperatureF,DewpointF,PressureIn,WindDirection,WindDirectionDegrees,WindSpeedMPH,WindSpeedGustMPH,Humidity,HourlyPrecipIn,Conditions,Clouds,dailyrainin,SoftwareType,DateUTC
2013-07-16 00:01:00,81.0,68.5,30.00,East,90,2.0,6.5,66,0.00,,---,0.00,VWS V13.01,2013-07-16 04:01:00,
2013-07-16 00:06:00,81.0,68.1,29.99,ENE,68,0.0,6.0,65,0.00,,---,0.00,VWS V13.01,2013-07-16 04:06:00,
2013-07-16 00:11:00,81.0,67.7,29.99,SE,135,1.1,6.0,64,0.00,,---,0.00,VWS V13.01,2013-07-16 04:11:00,
2013-07-16 00:16:00,81.0,67.7,29.99,East,90,0.0,7.2,64,0.00,,---,0.00,VWS V13.01,2013-07-16 04:16:00,
2013-07-16 00:21:00,81.0,67.7,29.99,SE,135,0.0,7.2,64,0.00,,---,0.00,VWS V13.01,2013-07-16 04:21:00,
2013-07-16 00:26:00,80.8,67.5,29.99,ENE,68,0.0,7.2,64,0.00,,---,0.00,VWS V13.01,2013-07-16 04:26:00,
2013-07-16 00:31:00,80.8,67.5,29.99,SE,135,0.0,7.2,64,0.00,,---,0.00,VWS V13.01,2013-07-16 04:31:00,
2013-07-16 00:36:00,80.8,67.5,29.99,ESE,112,0.0,7.2,64,0.00,,---,0.00,VWS V13.01,2013-07-16 04:36:00,
2013-07-16 00:41:00,80.8,67.5,29.99,ENE,68,0.0,7.2,64,0.00,,---,0.00,VWS V13.01,2013-07-16 04:41:00,
2013-07-16 00:46:00,80.6,67.8,29.99,SE,135,0.0,7.2,65,0.00,,---,0.00,VWS V13.01,2013-07-16 04:46:00,
2013-07-16 00:51:00,80.6,67.8,29.99,NE,45,0.0,7.2,65,0.00,,---,0.00,VWS V13.01,2013-07-16 04:51:00,
2013-07-16 00:56:00,80.6,67.8,29.99,SE,135,2.0,7.2,65,0.00,,---,0.00,VWS V13.01,2013-07-16 04:56:00,
2013-07-16 01:01:00,80.6,67.8,29.99,East,90,0.0,7.2,65,0.00,,---,0.00,VWS V13.01,2013-07-16 05:01:00,
2013-07-16 01:06:00,80.4,67.6,29.99,ENE,68,0.0,2.0,65,0.00,,---,0.00,VWS V13.01,2013-07-16 05:06:00,
2013-07-16 01:11:00,80.4,67.1,29.99,NE,45,0.0,2.0,64,0.00,,---,0.00,VWS V13.01,2013-07-16 05:11:00,
2013-07-16 01:16:00,80.4,67.6,29.99,ESE,112,0.0,6.5,65,0.00,,---,0.00,VWS V13.01,2013-07-16 05:16:00,
2013-07-16 01:21:00,80.4,67.6,29.98,ENE,68,0.0,6.5,65,0.00,,---,0.00,VWS V13.01,2013-07-16 05:21:00,
2013-07-16 01:26:00,80.4,67.6,29.98,ESE,112,0.0,6.5,65,0.00,,---,0.00,VWS V13.01,2013-07-16 05:26:00,
2013-07-16 01:31:00,80.2,67.4,29.98,ESE,112,0.0,6.5,65,0.00,,---,0.00,VWS V13.01,2013-07-16 05:31:00,
2013-07-16 01:36:00,80.2,67.4,29.98,ESE,112,0.0,6.5,65,0.00,,---,0.00,VWS V13.01,2013-07-16 05:36:00,
2013-07-16 01:41:00,80.1,67.2,29.98,SE,135,0.0,6.5,65,0.00,,---,0.00,VWS V13.01,2013-07-16 05:41:00,
2013-07-16 01:46:00,80.1,67.7,29.97,East,90,0.0,6.5,66,0.00,,---,0.00,VWS V13.01,2013-07-16 05:46:00,
2013-07-16 01:51:00,80.2,67.9,29.97,SSE,158,0.0,6.5,66,0.00,,---,0.00,VWS V13.01,2013-07-16 05:51:00,
2013-07-16 01:56:00,80.1,67.7,29.97,ENE,68,0.0,6.5,66,0.00,,---,0.00,VWS V13.01,2013-07-16 05:56:00,
2013-07-16 02:01:00,80.1,67.7,29.97,ENE,68,0.0,2.7,66,0.00,,---,0.00,VWS V13.01,2013-07-16 06:01:00,
2013-07-16 02:06:00,80.2,67.9,29.97,ESE,112,1.8,4.3,66,0.00,,---,0.00,VWS V13.01,2013-07-16 06:06:00,
2013-07-16 02:11:00,80.6,68.2,29.98,ESE,112,0.0,4.7,66,0.00,,---,0.00,VWS V13.01,2013-07-16 06:11:00,
2013-07-16 02:16:00,80.6,68.2,29.97,ENE,68,3.1,6.9,66,0.00,,---,0.00,VWS V13.01,2013-07-16 06:16:00,
2013-07-16 02:21:00,80.6,68.2,29.97,ESE,112,0.0,6.9,66,0.00,,---,0.00,VWS V13.01,2013-07-16 06:21:00,
2013-07-16 02:26:00,80.4,68.0,29.97,South,180,4.3,6.9,66,0.00,,---,0.00,VWS V13.01,2013-07-16 06:26:00,
2013-07-16 02:31:00,80.4,68.0,29.97,SE,135,2.7,6.9,66,0.00,,---,0.00,VWS V13.01,2013-07-16 06:31:00,
2013-07-16 02:36:00,80.2,67.4,29.97,ESE,112,0.0,6.9,65,0.00,,---,0.00,VWS V13.01,2013-07-16 06:36:00,
2013-07-16 02:41:00,80.1,67.2,29.97,East,90,0.0,6.9,65,0.00,,---,0.00,VWS V13.01,2013-07-16 06:41:00,
2013-07-16 02:46:00,80.2,67.4,29.98,ESE,112,0.0,6.9,65,0.00,,---,0.00,VWS V13.01,2013-07-16 06:46:00,
2013-07-16 02:51:00,80.1,67.2,29.97,ENE,68,0.0,6.9,65,0.00,,---,0.00,VWS V13.01,2013-07-16 06:51:00,
2013-07-16 02:56:00,80.1,67.2,29.97,ENE,68,0.0,6.9,65,0.00,,---,0.00,VWS V13.01,2013-07-16 06:56:00,
2013-07-16 03:01:00,80.1,67.7,29.97,East,90,0.0,2.5,66,0.00,,---,0.00,VWS V13.01,2013-07-16 07:01:00,
2013-07-16 03:06:00,80.2,67.9,29.97,East,90,2.9,8.7,66,0.00,,---,0.00,VWS V13.01,2013-07-16 07:06:00,
2013-07-16 03:11:00,79.9,67.5,29.97,ESE,112,0.0,8.7,66,0.00,,---,0.00,VWS V13.01,2013-07-16 07:11:00,
2013-07-16 03:16:00,79.5,67.6,29.97,ENE,68,2.9,8.7,67,0.00,,---,0.00,VWS V13.01,2013-07-16 07:16:00,
2013-07-16 03:21:00,79.0,67.5,29.97,ENE,68,0.0,8.7,68,0.00,,---,0.00,VWS V13.01,2013-07-16 07:21:00,
2013-07-16 03:26:00,78.4,67.0,29.97,ENE,68,0.0,8.7,68,0.00,,---,0.00,VWS V13.01,2013-07-16 07:26:00,
2013-07-16 03:31:00,78.1,67.1,29.97,SSE,158,0.0,8.7,69,0.00,,---,0.00,VWS V13.01,2013-07-16 07:31:00,
2013-07-16 03:36:00,77.9,66.9,29.97,ENE,68,0.0,8.7,69,0.00,,---,0.00,VWS V13.01,2013-07-16 07:36:00,
2013-07-16 03:41:00,77.7,67.6,29.96,East,90,0.0,8.7,71,0.00,,---,0.00,VWS V13.01,2013-07-16 07:41:00,
2013-07-16 03:46:00,77.5,67.4,29.96,ESE,112,0.0,8.7,71,0.00,,---,0.00,VWS V13.01,2013-07-16 07:46:00,
2013-07-16 03:51:00,77.4,67.6,29.96,East,90,0.0,8.7,72,0.00,,---,0.00,VWS V13.01,2013-07-16 07:51:00,
2013-07-16 03:56:00,77.2,67.5,29.96,East,90,0.0,8.7,72,0.00,,---,0.00,VWS V13.01,2013-07-16 07:56:00,
2013-07-16 04:01:00,76.8,67.1,29.96,East,90,0.0,0.0,72,0.00,,---,0.00,VWS V13.01,2013-07-16 08:01:00,
2013-07-16 04:06:00,77.0,67.7,29.96,East,90,0.0,0.0,73,0.00,,---,0.00,VWS V13.01,2013-07-16 08:06:00,
2013-07-16 04:11:00,76.8,67.5,29.96,East,90,0.0,0.0,73,0.00,,---,0.00,VWS V13.01,2013-07-16 08:11:00,
2013-07-16 04:16:00,76.8,67.9,29.96,SE,135,3.8,9.8,74,0.00,,---,0.00,VWS V13.01,2013-07-16 08:16:00,
2013-07-16 04:21:00,76.6,67.7,29.97,ESE,112,10.5,10.5,74,0.00,,---,0.00,VWS V13.01,2013-07-16 08:21:00,
2013-07-16 04:26:00,76.5,67.6,29.97,East,90,2.7,12.1,74,0.00,,---,0.00,VWS V13.01,2013-07-16 08:26:00,
2013-07-16 04:31:00,76.1,67.6,29.97,ENE,68,6.9,12.1,75,0.00,,---,0.00,VWS V13.01,2013-07-16 08:31:00,
2013-07-16 04:36:00,75.7,67.3,29.96,ENE,68,0.0,12.1,75,0.00,,---,0.00,VWS V13.01,2013-07-16 08:36:00,
2013-07-16 04:41:00,75.6,67.5,29.96,NE,45,0.0,12.1,76,0.00,,---,0.00,VWS V13.01,2013-07-16 08:41:00,
2013-07-16 04:46:00,75.4,67.3,29.96,ENE,68,0.0,12.1,76,0.00,,---,0.00,VWS V13.01,2013-07-16 08:46:00,
2013-07-16 04:51:00,75.4,67.7,29.96,NE,45,0.0,12.1,77,0.00,,---,0.00,VWS V13.01,2013-07-16 08:51:00,
2013-07-16 04:56:00,75.4,67.7,29.96,NE,45,0.0,12.1,77,0.00,,---,0.00,VWS V13.01,2013-07-16 08:56:00,
2013-07-16 05:01:00,75.4,68.1,29.96,NE,45,0.0,0.0,78,0.00,,---,0.00,VWS V13.01,2013-07-16 09:01:00,
2013-07-16 05:06:00,75.6,68.2,29.96,NE,45,0.0,0.0,78,0.00,,---,0.00,VWS V13.01,2013-07-16 09:06:00,
2013-07-16 05:11:00,75.4,68.1,29.96,NE,45,0.0,0.0,78,0.00,,---,0.00,VWS V13.01,2013-07-16 09:11:00,
2013-07-16 05:16:00,75.4,68.4,29.96,NE,45,0.0,0.0,79,0.00,,---,0.00,VWS V13.01,2013-07-16 09:16:00,
2013-07-16 05:21:00,75.4,68.4,29.97,NE,45,0.0,0.0,79,0.00,,---,0.00,VWS V13.01,2013-07-16 09:21:00,
2013-07-16 05:26:00,75.6,69.0,29.96,NE,45,0.0,0.0,80,0.00,,---,0.00,VWS V13.01,2013-07-16 09:26:00,
2013-07-16 05:31:00,75.4,68.8,29.96,NE,45,0.0,0.0,80,0.00,,---,0.00,VWS V13.01,2013-07-16 09:31:00,
2013-07-16 05:36:00,75.4,68.8,29.96,NE,45,0.0,0.0,80,0.00,,---,0.00,VWS V13.01,2013-07-16 09:36:00,
2013-07-16 05:41:00,75.4,68.8,29.96,NE,45,0.0,0.0,80,0.00,,---,0.00,VWS V13.01,2013-07-16 09:41:00,
2013-07-16 05:46:00,75.4,68.8,29.96,NE,45,0.0,0.0,80,0.00,,---,0.00,VWS V13.01,2013-07-16 09:46:00,
2013-07-16 05:51:00,75.4,68.8,29.97,NE,45,0.0,0.0,80,0.00,,---,0.00,VWS V13.01,2013-07-16 09:51:00,
2013-07-16 05:56:00,75.2,69.0,29.96,NE,45,0.0,0.0,81,0.00,,---,0.02,VWS V13.01,2013-07-16 09:56:00,
2013-07-16 06:01:00,75.2,69.0,29.97,NE,45,0.0,0.0,81,0.02,,---,0.02,VWS V13.01,2013-07-16 10:01:00,
2013-07-16 06:06:00,75.2,69.3,29.97,NE,45,0.0,0.0,82,0.02,,---,0.02,VWS V13.01,2013-07-16 10:06:00,
2013-07-16 06:11:00,75.2,69.3,29.96,NE,45,0.0,0.0,82,0.02,,---,0.02,VWS V13.01,2013-07-16 10:11:00,
2013-07-16 06:16:00,75.4,69.5,29.96,NE,45,0.0,0.0,82,0.02,,---,0.02,VWS V13.01,2013-07-16 10:16:00,
2013-07-16 06:21:00,75.4,69.5,29.96,NE,45,0.0,0.0,82,0.02,,---,0.02,VWS V13.01,2013-07-16 10:21:00,
2013-07-16 06:26:00,75.6,69.7,29.96,NE,45,0.0,0.0,82,0.02,,---,0.02,VWS V13.01,2013-07-16 10:26:00,
2013-07-16 06:31:00,75.7,69.9,29.96,NE,45,0.0,0.0,82,0.02,,---,0.02,VWS V13.01,2013-07-16 10:31:00,
2013-07-16 06:36:00,75.9,70.0,29.96,NE,45,0.0,0.0,82,0.02,,---,0.02,VWS V13.01,2013-07-16 10:36:00,
2013-07-16 06:41:00,75.9,70.0,29.96,NE,45,0.0,0.0,82,0.02,,---,0.02,VWS V13.01,2013-07-16 10:41:00,
2013-07-16 06:46:00,75.9,69.7,29.96,NE,45,0.0,0.0,81,0.02,,---,0.02,VWS V13.01,2013-07-16 10:46:00,
2013-07-16 06:51:00,76.1,69.8,29.97,NE,45,0.0,0.0,81,0.02,,---,0.02,VWS V13.01,2013-07-16 10:51:00,
2013-07-16 06:56:00,76.1,69.8,29.97,NE,45,0.0,0.0,81,0.00,,---,0.02,VWS V13.01,2013-07-16 10:56:00,
2013-07-16 07:01:00,75.9,68.9,29.97,NE,45,0.0,0.0,79,0.00,,---,0.02,VWS V13.01,2013-07-16 11:01:00,
2013-07-16 07:06:00,76.1,69.5,29.97,NE,45,0.0,0.0,80,0.00,,---,0.02,VWS V13.01,2013-07-16 11:06:00,
2013-07-16 07:11:00,76.3,69.7,29.97,NE,45,0.0,0.0,80,0.00,,---,0.02,VWS V13.01,2013-07-16 11:11:00,
2013-07-16 07:16:00,76.5,69.5,29.97,NE,45,0.0,0.0,79,0.00,,---,0.02,VWS V13.01,2013-07-16 11:16:00,
2013-07-16 07:21:00,76.5,69.5,29.97,NE,45,0.0,0.0,79,0.00,,---,0.02,VWS V13.01,2013-07-16 11:21:00,
2013-07-16 07:26:00,76.6,69.6,29.97,NE,45,0.0,0.0,79,0.00,,---,0.02,VWS V13.01,2013-07-16 11:26:00,
2013-07-16 07:31:00,77.2,70.2,29.97,NE,45,0.0,0.0,79,0.00,,---,0.02,VWS V13.01,2013-07-16 11:31:00,
2013-07-16 07:36:00,77.7,71.1,29.97,NE,45,0.0,0.0,80,0.00,,---,0.02,VWS V13.01,2013-07-16 11:36:00,
2013-07-16 07:41:00,78.6,71.6,29.97,NE,45,0.0,0.0,79,0.00,,---,0.02,VWS V13.01,2013-07-16 11:41:00,
2013-07-16 07:46:00,80.1,73.3,29.97,NE,45,0.0,0.0,80,0.00,,---,0.02,VWS V13.01,2013-07-16 11:46:00,
2013-07-16 07:51:00,81.0,73.5,29.97,ESE,112,0.0,0.0,78,0.00,,---,0.02,VWS V13.01,2013-07-16 11:51:00,
2013-07-16 07:56:00,82.8,74.4,29.97,East,90,0.0,0.0,76,0.00,,---,0.02,VWS V13.01,2013-07-16 11:56:00,
2013-07-16 08:01:00,84.7,73.0,29.98,East,90,0.0,0.0,68,0.00,,---,0.02,VWS V13.01,2013-07-16 12:01:00,
2013-07-16 08:06:00,84.9,70.5,29.98,ENE,68,0.0,6.5,62,0.00,,---,0.02,VWS V13.01,2013-07-16 12:06:00,
2013-07-16 08:11:00,84.6,69.6,29.98,ENE,68,0.0,6.5,61,0.00,,---,0.02,VWS V13.01,2013-07-16 12:11:00,
2013-07-16 08:16:00,85.5,70.0,29.98,East,90,2.7,7.8,60,0.00,,---,0.02,VWS V13.01,2013-07-16 12:16:00,
2013-07-16 08:21:00,86.2,70.7,29.98,ENE,68,0.0,7.8,60,0.00,,---,0.02,VWS V13.01,2013-07-16 12:21:00,
2013-07-16 08:26:00,87.4,70.9,29.98,ENE,68,2.2,7.8,58,0.00,,---,0.02,VWS V13.01,2013-07-16 12:26:00,
2013-07-16 08:31:00,86.5,67.9,29.99,NE,45,0.0,7.8,54,0.00,,---,0.02,VWS V13.01,2013-07-16 12:31:00,
2013-07-16 08:36:00,84.9,67.0,29.99,East,90,5.8,8.1,55,0.00,,---,0.02,VWS V13.01,2013-07-16 12:36:00,
2013-07-16 08:41:00,83.5,67.2,29.99,ESE,112,1.8,10.1,58,0.00,,---,0.02,VWS V13.01,2013-07-16 12:41:00,
2013-07-16 08:46:00,82.2,67.4,29.99,East,90,6.7,10.1,61,0.00,,---,0.02,VWS V13.01,2013-07-16 12:46:00,
2013-07-16 08:51:00,81.5,67.7,29.99,East,90,12.8,12.8,63,0.00,,---,0.02,VWS V13.01,2013-07-16 12:51:00,
2013-07-16 08:56:00,81.1,68.3,29.99,NE,45,2.7,12.8,65,0.00,,---,0.02,VWS V13.01,2013-07-16 12:56:00,
2013-07-16 09:01:00,80.6,68.2,30.00,SE,135,2.5,4.5,66,0.00,,---,0.02,VWS V13.01,2013-07-16 13:01:00,
2013-07-16 09:06:00,79.0,67.1,30.01,SE,135,9.6,17.5,67,0.00,,---,0.06,VWS V13.01,2013-07-16 13:06:00,
2013-07-16 09:11:00,77.5,66.6,30.02,SSE,158,5.8,17.5,69,0.06,,---,0.08,VWS V13.01,2013-07-16 13:11:00,
2013-07-16 09:16:00,76.8,66.3,30.02,SSE,158,0.0,17.5,70,0.06,,---,0.08,VWS V13.01,2013-07-16 13:16:00,
2013-07-16 09:21:00,76.8,67.1,30.01,ESE,112,0.0,17.5,72,0.06,,---,0.08,VWS V13.01,2013-07-16 13:21:00,
2013-07-16 09:26:00,77.0,67.7,30.02,East,90,0.0,17.5,73,0.06,,---,0.08,VWS V13.01,2013-07-16 13:26:00,
2013-07-16 09:31:00,76.8,67.5,30.02,East,90,0.0,17.5,73,0.06,,---,0.08,VWS V13.01,2013-07-16 13:31:00,
2013-07-16 09:36:00,77.4,68.4,30.02,NE,45,0.0,17.5,74,0.06,,---,0.08,VWS V13.01,2013-07-16 13:36:00,
2013-07-16 09:41:00,77.4,68.4,30.02,SSE,158,0.0,17.5,74,0.06,,---,0.08,VWS V13.01,2013-07-16 13:41:00,
2013-07-16 09:46:00,77.4,68.0,30.02,SSE,158,4.3,17.5,73,0.06,,---,0.08,VWS V13.01,2013-07-16 13:46:00,
2013-07-16 09:51:00,77.2,67.1,30.02,East,90,0.0,17.5,71,0.06,,---,0.08,VWS V13.01,2013-07-16 13:51:00,
2013-07-16 09:56:00,77.2,67.1,30.02,ENE,68,0.0,17.5,71,0.06,,---,0.08,VWS V13.01,2013-07-16 13:56:00,
2013-07-16 10:01:00,77.4,67.2,30.02,ENE,68,0.0,0.0,71,0.06,,---,0.08,VWS V13.01,2013-07-16 14:01:00,
2013-07-16 10:06:00,77.5,67.4,30.02,NE,45,0.0,0.0,71,0.00,,---,0.08,VWS V13.01,2013-07-16 14:06:00,
2013-07-16 10:11:00,77.7,68.0,30.03,ESE,112,0.0,0.0,72,0.00,,---,0.08,VWS V13.01,2013-07-16 14:11:00,
2013-07-16 10:16:00,77.9,67.3,30.02,ESE,112,0.0,3.8,70,0.00,,---,0.08,VWS V13.01,2013-07-16 14:16:00,
2013-07-16 10:21:00,78.3,67.3,30.03,SSE,158,0.0,4.3,69,0.00,,---,0.08,VWS V13.01,2013-07-16 14:21:00,
2013-07-16 10:26:00,78.4,67.0,30.03,ESE,112,0.0,5.6,68,0.00,,---,0.08,VWS V13.01,2013-07-16 14:26:00,
2013-07-16 10:31:00,78.8,67.4,30.03,ENE,68,0.0,5.6,68,0.00,,---,0.08,VWS V13.01,2013-07-16 14:31:00,
2013-07-16 10:36:00,79.0,67.1,30.03,SSE,158,0.0,7.6,67,0.00,,---,0.08,VWS V13.01,2013-07-16 14:36:00,
2013-07-16 10:41:00,79.0,66.7,30.03,SE,135,0.0,7.6,66,0.00,,---,0.08,VWS V13.01,2013-07-16 14:41:00,
2013-07-16 10:46:00,79.0,66.2,30.03,ESE,112,0.0,7.6,65,0.00,,---,0.08,VWS V13.01,2013-07-16 14:46:00,
2013-07-16 10:51:00,79.2,66.8,30.03,East,90,2.7,7.6,66,0.00,,---,0.08,VWS V13.01,2013-07-16 14:51:00,
2013-07-16 10:56:00,79.0,67.1,30.04,ESE,112,10.3,16.6,67,0.00,,---,0.08,VWS V13.01,2013-07-16 14:56:00,
2013-07-16 11:01:00,79.0,67.1,30.03,ESE,112,0.0,12.8,67,0.00,,---,0.08,VWS V13.01,2013-07-16 15:01:00,
2013-07-16 11:06:00,78.8,66.9,30.03,East,90,0.0,12.8,67,0.00,,---,0.08,VWS V13.01,2013-07-16 15:06:00,
2013-07-16 11:11:00,78.4,66.6,30.03,SE,135,7.2,15.4,67,0.00,,---,0.08,VWS V13.01,2013-07-16 15:11:00,
2013-07-16 11:16:00,78.4,66.6,30.04,East,90,3.8,15.4,67,0.00,,---,0.08,VWS V13.01,2013-07-16 15:16:00,
2013-07-16 11:21:00,78.3,66.4,30.03,East,90,0.0,15.4,67,0.00,,---,0.08,VWS V13.01,2013-07-16 15:21:00,
2013-07-16 11:26:00,78.3,66.4,30.03,SE,135,13.0,17.5,67,0.00,,---,0.08,VWS V13.01,2013-07-16 15:26:00,
2013-07-16 11:31:00,78.3,66.4,30.02,ESE,112,0.0,17.5,67,0.00,,---,0.08,VWS V13.01,2013-07-16 15:31:00,
2013-07-16 11:36:00,78.3,68.1,30.02,East,90,4.0,17.5,71,0.00,,---,0.08,VWS V13.01,2013-07-16 15:36:00,
2013-07-16 11:41:00,78.3,67.7,30.03,East,90,10.5,17.5,70,0.00,,---,0.10,VWS V13.01,2013-07-16 15:41:00,
2013-07-16 11:46:00,78.4,67.8,30.03,SE,135,5.8,17.5,70,0.02,,---,0.10,VWS V13.01,2013-07-16 15:46:00,
2013-07-16 11:51:00,78.4,67.8,30.03,East,90,6.5,17.5,70,0.02,,---,0.10,VWS V13.01,2013-07-16 15:51:00,
2013-07-16 11:56:00,78.3,67.7,30.04,ESE,112,9.0,17.5,70,0.02,,---,0.10,VWS V13.01,2013-07-16 15:56:00,
2013-07-16 12:01:00,78.3,67.7,30.04,ENE,68,6.0,9.0,70,0.02,,---,0.10,VWS V13.01,2013-07-16 16:01:00,
2013-07-16 12:06:00,78.1,67.5,30.04,East,90,2.9,9.0,70,0.02,,---,0.10,VWS V13.01,2013-07-16 16:06:00,
2013-07-16 12:11:00,78.1,67.5,30.04,NE,45,9.8,16.1,70,0.02,,---,0.10,VWS V13.01,2013-07-16 16:11:00,
2013-07-16 12:16:00,77.9,67.3,30.04,ESE,112,6.7,16.1,70,0.02,,---,0.10,VWS V13.01,2013-07-16 16:16:00,
2013-07-16 12:21:00,77.7,67.2,30.05,ESE,112,4.0,16.1,70,0.02,,---,0.10,VWS V13.01,2013-07-16 16:21:00,
2013-07-16 12:26:00,77.7,67.2,30.05,SSE,158,4.7,16.1,70,0.02,,---,0.10,VWS V13.01,2013-07-16 16:26:00,
2013-07-16 12:31:00,77.4,66.8,30.05,ESE,112,3.8,16.1,70,0.02,,---,0.10,VWS V13.01,2013-07-16 16:31:00,
2013-07-16 12:36:00,77.4,66.8,30.06,ESE,112,4.3,16.1,70,0.02,,---,0.10,VWS V13.01,2013-07-16 16:36:00,
2013-07-16 12:41:00,77.2,66.7,30.06,ENE,68,9.4,16.1,70,0.00,,---,0.10,VWS V13.01,2013-07-16 16:41:00,
2013-07-16 12:46:00,77.2,67.5,30.06,ESE,112,0.0,16.1,72,0.00,,---,0.10,VWS V13.01,2013-07-16 16:46:00,
2013-07-16 12:51:00,76.8,67.1,30.05,ESE,112,3.6,16.1,72,0.00,,---,0.10,VWS V13.01,2013-07-16 16:51:00,
2013-07-16 12:56:00,76.6,66.9,30.06,SE,135,1.3,16.1,72,0.00,,---,0.10,VWS V13.01,2013-07-16 16:56:00,
2013-07-16 13:01:00,76.6,66.9,30.05,ESE,112,1.8,7.6,72,0.00,,---,0.10,VWS V13.01,2013-07-16 17:01:00,
2013-07-16 13:06:00,76.6,66.9,30.05,ESE,112,0.0,7.6,72,0.00,,---,0.10,VWS V13.01,2013-07-16 17:06:00,
2013-07-16 13:11:00,76.6,66.9,30.05,SE,135,7.6,8.5,72,0.00,,---,0.10,VWS V13.01,2013-07-16 17:11:00,
2013-07-16 13:16:00,76.6,67.3,30.05,SE,135,0.0,8.5,73,0.00,,---,0.10,VWS V13.01,2013-07-16 17:16:00,
2013-07-16 13:20:00,76.6,67.3,30.04,SE,135,2.5,8.5,73,0.00,,---,0.10,VWS V13.01,2013-07-16 17:20:00,
2013-07-16 13:26:00,76.6,67.3,30.04,ESE,112,0.0,8.5,73,0.00,,---,0.10,VWS V13.01,2013-07-16 17:26:00,
2013-07-16 13:31:00,77.2,67.9,30.04,SE,135,0.0,8.5,73,0.00,,---,0.10,VWS V13.01,2013-07-16 17:31:00,
2013-07-16 13:36:00,77.2,67.9,30.03,SSE,158,0.0,8.5,73,0.00,,---,0.10,VWS V13.01,2013-07-16 17:36:00,
2013-07-16 13:40:00,77.2,67.9,30.03,ESE,112,0.0,8.5,73,0.00,,---,0.10,VWS V13.01,2013-07-16 17:40:00,
2013-07-16 13:45:00,77.4,68.0,30.03,SE,135,0.0,8.5,73,0.00,,---,0.10,VWS V13.01,2013-07-16 17:45:00,
2013-07-16 13:50:00,77.4,68.4,30.03,ESE,112,0.0,8.5,74,0.00,,---,0.10,VWS V13.01,2013-07-16 17:50:00,
2013-07-16 13:55:00,77.4,68.4,30.03,NE,45,0.0,8.5,74,0.00,,---,0.10,VWS V13.01,2013-07-16 17:55:00,
2013-07-16 14:00:00,77.4,68.4,30.03,ENE,68,0.0,0.0,74,0.00,,---,0.10,VWS V13.01,2013-07-16 18:00:00,
2013-07-16 14:05:00,77.4,68.0,30.03,East,90,0.0,0.0,73,0.00,,---,0.10,VWS V13.01,2013-07-16 18:05:00,
2013-07-16 14:10:00,77.5,68.2,30.04,ENE,68,0.0,0.0,73,0.00,,---,0.10,VWS V13.01,2013-07-16 18:10:00,
2013-07-16 14:15:00,77.5,68.2,30.03,ENE,68,0.0,0.0,73,0.00,,---,0.10,VWS V13.01,2013-07-16 18:15:00,
2013-07-16 14:20:00,77.9,68.9,30.02,ENE,68,0.0,1.1,74,0.00,,---,0.10,VWS V13.01,2013-07-16 18:20:00,
2013-07-16 14:25:00,78.3,69.3,30.02,East,90,0.0,2.0,74,0.00,,---,0.10,VWS V13.01,2013-07-16 18:25:00,
2013-07-16 14:30:00,79.0,69.2,30.02,SE,135,0.0,2.0,72,0.00,,---,0.10,VWS V13.01,2013-07-16 18:30:00,
2013-07-16 14:35:00,79.2,69.4,30.01,NE,45,0.0,3.6,72,0.00,,---,0.10,VWS V13.01,2013-07-16 18:35:00,
2013-07-16 14:40:00,79.9,70.1,30.01,SSE,158,0.0,4.0,72,0.00,,---,0.10,VWS V13.01,2013-07-16 18:40:00,
2013-07-16 14:45:00,80.2,70.4,30.01,SE,135,2.9,4.0,72,0.00,,---,0.10,VWS V13.01,2013-07-16 18:45:00,
2013-07-16 14:50:00,81.0,71.1,30.01,East,90,0.0,4.0,72,0.00,,---,0.10,VWS V13.01,2013-07-16 18:50:00,
2013-07-16 14:55:00,81.3,71.4,30.01,ENE,68,0.0,4.0,72,0.00,,---,0.10,VWS V13.01,2013-07-16 18:55:00,
2013-07-16 15:00:00,81.7,71.8,30.01,East,90,0.0,0.0,72,0.00,,---,0.10,VWS V13.01,2013-07-16 19:00:00,
2013-07-16 15:05:00,82.0,72.1,30.00,SE,135,0.0,4.0,72,0.00,,---,0.10,VWS V13.01,2013-07-16 19:05:00,
2013-07-16 15:10:00,82.4,69.0,30.00,ENE,68,0.7,6.0,64,0.00,,---,0.10,VWS V13.01,2013-07-16 19:10:00,
2013-07-16 15:15:00,82.8,68.9,30.00,SE,135,0.0,6.0,63,0.00,,---,0.10,VWS V13.01,2013-07-16 19:15:00,
2013-07-16 15:20:00,82.8,68.4,30.00,SSE,158,4.0,7.4,62,0.00,,---,0.10,VWS V13.01,2013-07-16 19:20:00,
2013-07-16 15:25:00,83.3,68.5,30.00,ESE,112,0.0,7.4,61,0.00,,---,0.10,VWS V13.01,2013-07-16 19:25:00,
2013-07-16 15:30:00,83.3,67.0,30.00,ENE,68,0.0,7.4,58,0.00,,---,0.10,VWS V13.01,2013-07-16 19:30:00,
2013-07-16 15:35:00,83.5,67.2,29.99,ESE,112,0.0,7.4,58,0.00,,---,0.10,VWS V13.01,2013-07-16 19:35:00,
2013-07-16 15:40:00,83.8,67.5,30.00,ENE,68,0.0,7.4,58,0.00,,---,0.10,VWS V13.01,2013-07-16 19:40:00,
2013-07-16 15:45:00,83.8,67.0,29.99,ESE,112,0.0,7.4,57,0.00,,---,0.10,VWS V13.01,2013-07-16 19:45:00,
2013-07-16 15:50:00,84.0,67.2,29.99,East,90,0.0,7.4,57,0.00,,---,0.10,VWS V13.01,2013-07-16 19:50:00,
2013-07-16 15:55:00,83.8,66.5,29.99,NE,45,0.0,7.4,56,0.00,,---,0.10,VWS V13.01,2013-07-16 19:55:00,
2013-07-16 16:00:00,83.8,66.0,29.99,ESE,112,1.6,1.8,55,0.00,,---,0.10,VWS V13.01,2013-07-16 20:00:00,
2013-07-16 16:05:00,84.6,67.7,29.98,SE,135,0.0,3.4,57,0.00,,---,0.10,VWS V13.01,2013-07-16 20:05:00,
2013-07-16 16:10:00,85.1,67.7,29.98,ESE,112,0.0,3.4,56,0.00,,---,0.10,VWS V13.01,2013-07-16 20:10:00,
2013-07-16 16:15:00,85.1,65.5,29.98,East,90,0.0,6.5,52,0.00,,---,0.10,VWS V13.01,2013-07-16 20:15:00,
2013-07-16 16:20:00,85.1,65.5,29.98,NE,45,1.8,7.2,52,0.00,,---,0.10,VWS V13.01,2013-07-16 20:20:00,
2013-07-16 16:25:00,84.9,65.3,29.98,East,90,2.9,8.1,52,0.00,,---,0.10,VWS V13.01,2013-07-16 20:25:00,
2013-07-16 16:30:00,84.9,66.4,29.98,East,90,0.0,8.1,54,0.00,,---,0.10,VWS V13.01,2013-07-16 20:30:00,
2013-07-16 16:35:00,84.9,66.4,29.98,East,90,1.1,8.1,54,0.00,,---,0.10,VWS V13.01,2013-07-16 20:35:00,
2013-07-16 16:40:00,84.7,66.3,29.98,SSE,158,5.1,8.1,54,0.00,,---,0.10,VWS V13.01,2013-07-16 20:40:00,
2013-07-16 16:45:00,84.7,66.8,29.99,SSE,158,1.3,8.5,55,0.00,,---,0.10,VWS V13.01,2013-07-16 20:45:00,
2013-07-16 16:50:00,84.6,66.1,29.98,East,90,0.0,8.5,54,0.00,,---,0.10,VWS V13.01,2013-07-16 20:50:00,
2013-07-16 16:55:00,84.0,65.6,29.98,ENE,68,0.0,8.5,54,0.00,,---,0.10,VWS V13.01,2013-07-16 20:55:00,
2013-07-16 17:00:00,84.2,65.8,29.98,ENE,68,2.0,4.5,54,0.00,,---,0.10,VWS V13.01,2013-07-16 21:00:00,
2013-07-16 17:05:00,84.4,65.9,29.98,ENE,68,0.0,4.5,54,0.00,,---,0.10,VWS V13.01,2013-07-16 21:05:00,
2013-07-16 17:10:00,84.4,65.4,29.98,ENE,68,0.9,6.7,53,0.00,,---,0.10,VWS V13.01,2013-07-16 21:10:00,
2013-07-16 17:15:00,84.4,65.9,29.98,ESE,112,0.0,6.7,54,0.00,,---,0.10,VWS V13.01,2013-07-16 21:15:00,
2013-07-16 17:20:00,84.6,66.1,29.98,NE,45,7.2,7.2,54,0.00,,---,0.10,VWS V13.01,2013-07-16 21:20:00,
2013-07-16 17:25:00,84.7,66.3,29.98,East,90,0.0,7.4,54,0.00,,---,0.10,VWS V13.01,2013-07-16 21:25:00,
2013-07-16 17:30:00,85.1,66.6,29.98,SE,135,6.3,7.4,54,0.00,,---,0.10,VWS V13.01,2013-07-16 21:30:00,
2013-07-16 17:35:00,84.9,65.3,29.98,SE,135,2.2,10.1,52,0.00,,---,0.10,VWS V13.01,2013-07-16 21:35:00,
2013-07-16 17:40:00,85.1,65.5,29.98,ESE,112,0.4,10.1,52,0.00,,---,0.10,VWS V13.01,2013-07-16 21:40:00,
2013-07-16 17:45:00,85.5,65.8,29.98,ESE,112,0.0,10.1,52,0.00,,---,0.10,VWS V13.01,2013-07-16 21:45:00,
2013-07-16 17:50:00,86.2,66.5,29.98,SE,135,4.5,10.1,52,0.00,,---,0.10,VWS V13.01,2013-07-16 21:50:00,
2013-07-16 17:55:00,86.4,65.5,29.98,NE,45,2.0,10.1,50,0.00,,---,0.10,VWS V13.01,2013-07-16 21:55:00,
2013-07-16 18:00:00,86.4,65.0,29.98,ESE,112,4.0,5.1,49,0.00,,---,0.10,VWS V13.01,2013-07-16 22:00:00,
2013-07-16 18:05:00,86.2,65.4,29.98,ESE,112,2.7,6.0,50,0.00,,---,0.10,VWS V13.01,2013-07-16 22:05:00,
2013-07-16 18:10:00,86.2,65.4,29.98,East,90,2.9,9.0,50,0.00,,---,0.10,VWS V13.01,2013-07-16 22:10:00,
2013-07-16 18:15:00,85.6,65.4,29.98,East,90,0.0,9.0,51,0.00,,---,0.10,VWS V13.01,2013-07-16 22:15:00,
2013-07-16 18:20:00,85.6,65.4,29.98,East,90,4.5,9.0,51,0.00,,---,0.10,VWS V13.01,2013-07-16 22:20:00,
2013-07-16 18:25:00,85.8,66.7,29.98,SE,135,4.5,9.4,53,0.00,,---,0.10,VWS V13.01,2013-07-16 22:25:00,
2013-07-16 18:30:00,86.2,67.6,29.98,SE,135,0.0,10.7,54,0.00,,---,0.10,VWS V13.01,2013-07-16 22:30:00,
2013-07-16 18:35:00,85.6,67.6,29.99,ESE,112,4.7,10.7,55,0.00,,---,0.10,VWS V13.01,2013-07-16 22:35:00,
2013-07-16 18:40:00,84.9,67.5,29.98,East,90,5.4,10.7,56,0.00,,---,0.10,VWS V13.01,2013-07-16 22:40:00,
2013-07-16 18:45:00,84.4,68.0,29.99,East,90,0.0,12.1,58,0.00,,---,0.10,VWS V13.01,2013-07-16 22:45:00,
2013-07-16 18:50:00,83.8,68.0,29.99,ESE,112,7.8,12.1,59,0.00,,---,0.10,VWS V13.01,2013-07-16 22:50:00,
2013-07-16 18:55:00,83.7,68.8,29.99,ESE,112,0.0,12.8,61,0.00,,---,0.10,VWS V13.01,2013-07-16 22:55:00,
2013-07-16 19:00:00,83.3,68.5,29.99,SE,135,0.0,0.0,61,0.00,,---,0.10,VWS V13.01,2013-07-16 23:00:00,
2013-07-16 19:05:00,82.8,68.4,29.99,ESE,112,3.4,8.5,62,0.00,,---,0.10,VWS V13.01,2013-07-16 23:05:00,
2013-07-16 19:10:00,82.6,68.7,29.99,ENE,68,0.0,8.7,63,0.00,,---,0.10,VWS V13.01,2013-07-16 23:10:00,
2013-07-16 19:15:00,82.6,68.7,29.99,ESE,112,6.9,8.7,63,0.00,,---,0.10,VWS V13.01,2013-07-16 23:15:00,
2013-07-16 19:20:00,82.2,68.8,29.99,ESE,112,2.5,10.3,64,0.00,,---,0.10,VWS V13.01,2013-07-16 23:20:00,
2013-07-16 19:25:00,82.0,68.7,29.99,NE,45,0.0,10.3,64,0.00,,---,0.10,VWS V13.01,2013-07-16 23:25:00,
2013-07-16 19:30:00,82.0,68.7,30.00,ESE,112,0.0,10.3,64,0.00,,---,0.10,VWS V13.01,2013-07-16 23:30:00,
2013-07-16 19:35:00,81.9,68.9,30.00,East,90,2.7,10.3,65,0.00,,---,0.10,VWS V13.01,2013-07-16 23:35:00,
2013-07-16 19:40:00,81.9,68.9,30.01,ENE,68,5.1,10.3,65,0.00,,---,0.10,VWS V13.01,2013-07-16 23:40:00,
2013-07-16 19:45:00,81.7,68.3,30.00,ESE,112,0.0,10.5,64,0.00,,---,0.10,VWS V13.01,2013-07-16 23:45:00,
2013-07-16 19:50:00,81.7,68.3,30.00,ENE,68,6.3,10.5,64,0.00,,---,0.10,VWS V13.01,2013-07-16 23:50:00,
2013-07-16 19:55:00,81.5,68.2,29.99,East,90,0.0,10.5,64,0.00,,---,0.10,VWS V13.01,2013-07-16 23:55:00,
2013-07-16 20:00:00,81.5,68.2,29.99,East,90,4.0,4.0,64,0.00,,---,0.10,VWS V13.01,2013-07-17 00:00:00,
2013-07-16 20:05:00,81.3,68.0,29.99,NE,45,2.9,9.2,64,0.00,,---,0.10,VWS V13.01,2013-07-17 00:05:00,
2013-07-16 20:10:00,81.3,68.0,29.99,East,90,2.0,9.2,64,0.00,,---,0.10,VWS V13.01,2013-07-17 00:10:00,
2013-07-16 20:15:00,81.0,67.7,29.99,NE,45,2.2,9.2,64,0.00,,---,0.10,VWS V13.01,2013-07-17 00:15:00,
2013-07-16 20:20:00,80.6,66.8,29.99,ENE,68,4.5,9.8,63,0.00,,---,0.10,VWS V13.01,2013-07-17 00:20:00,
2013-07-16 20:25:00,80.1,66.3,29.99,NE,45,0.0,9.8,63,0.00,,---,0.10,VWS V13.01,2013-07-17 00:25:00,
2013-07-16 20:30:00,79.9,66.2,29.99,East,90,0.0,9.8,63,0.00,,---,0.10,VWS V13.01,2013-07-17 00:30:00,
2013-07-16 20:35:00,79.5,65.8,29.99,NE,45,0.0,9.8,63,0.00,,---,0.10,VWS V13.01,2013-07-17 00:35:00,
2013-07-16 20:40:00,79.5,66.3,29.99,ENE,68,0.0,9.8,64,0.00,,---,0.10,VWS V13.01,2013-07-17 00:40:00,
2013-07-16 20:45:00,79.2,66.4,30.00,East,90,0.0,9.8,65,0.00,,---,0.10,VWS V13.01,2013-07-17 00:45:00,
2013-07-16 20:50:00,79.0,66.2,30.00,ENE,68,0.0,9.8,65,0.00,,---,0.10,VWS V13.01,2013-07-17 00:50:00,
2013-07-16 20:55:00,79.0,66.2,30.00,SE,135,0.0,9.8,65,0.00,,---,0.10,VWS V13.01,2013-07-17 00:55:00,
2013-07-16 21:00:00,79.0,66.7,30.00,SE,135,0.0,0.0,66,0.00,,---,0.10,VWS V13.01,2013-07-17 01:00:00,
2013-07-16 21:05:00,79.0,66.7,30.00,SE,135,0.0,0.0,66,0.00,,---,0.10,VWS V13.01,2013-07-17 01:05:00,
2013-07-16 21:10:00,79.0,66.7,30.01,SSE,158,0.0,0.0,66,0.00,,---,0.10,VWS V13.01,2013-07-17 01:10:00,
2013-07-16 21:15:00,79.0,67.1,30.01,SSE,158,0.0,0.0,67,0.00,,---,0.10,VWS V13.01,2013-07-17 01:15:00,
2013-07-16 21:20:00,79.0,67.1,30.02,ESE,112,0.0,0.0,67,0.00,,---,0.10,VWS V13.01,2013-07-17 01:20:00,
2013-07-16 21:25:00,79.0,67.1,30.01,SE,135,0.0,0.0,67,0.00,,---,0.10,VWS V13.01,2013-07-17 01:25:00,
2013-07-16 21:26:00,79.0,67.1,30.02,SE,135,0.0,0.0,67,0.00,,---,0.10,VWS V13.01,2013-07-17 01:26:00,
2013-07-16 21:31:00,78.8,66.9,30.02,ENE,68,0.0,0.0,67,0.00,,---,0.10,VWS V13.01,2013-07-17 01:31:00,
2013-07-16 21:36:00,79.0,67.1,30.02,ESE,112,0.0,0.0,67,0.00,,---,0.10,VWS V13.01,2013-07-17 01:36:00,
2013-07-16 21:41:00,78.6,67.2,30.02,ENE,68,0.0,0.0,68,0.00,,---,0.10,VWS V13.01,2013-07-17 01:41:00,
2013-07-16 21:46:00,79.0,67.5,30.02,NE,45,0.0,3.6,68,0.00,,---,0.10,VWS V13.01,2013-07-17 01:46:00,
2013-07-16 21:51:00,78.6,67.6,30.02,ENE,68,0.0,3.6,69,0.00,,---,0.10,VWS V13.01,2013-07-17 01:51:00,
2013-07-16 21:56:00,78.6,67.6,30.02,ENE,68,0.0,3.6,69,0.00,,---,0.10,VWS V13.01,2013-07-17 01:56:00,
2013-07-16 22:01:00,78.6,67.6,30.02,ENE,68,0.0,0.0,69,0.00,,---,0.10,VWS V13.01,2013-07-17 02:01:00,
2013-07-16 22:06:00,78.6,67.6,30.03,ENE,68,0.0,0.0,69,0.00,,---,0.10,VWS V13.01,2013-07-17 02:06:00,
2013-07-16 22:11:00,78.4,67.0,30.02,East,90,0.0,2.0,68,0.00,,---,0.10,VWS V13.01,2013-07-17 02:11:00,
2013-07-16 22:16:00,78.4,67.0,30.03,East,90,0.0,2.0,68,0.00,,---,0.10,VWS V13.01,2013-07-17 02:16:00,
2013-07-16 22:21:00,78.6,66.8,30.03,ENE,68,0.0,2.9,67,0.00,,---,0.10,VWS V13.01,2013-07-17 02:21:00,
2013-07-16 22:26:00,78.8,66.5,30.02,ESE,112,0.0,2.9,66,0.00,,---,0.10,VWS V13.01,2013-07-17 02:26:00,
2013-07-16 22:31:00,78.8,66.5,30.03,ESE,112,0.0,2.9,66,0.00,,---,0.10,VWS V13.01,2013-07-17 02:31:00,
2013-07-16 22:36:00,78.8,66.5,30.03,East,90,0.0,2.9,66,0.00,,---,0.10,VWS V13.01,2013-07-17 02:36:00,
2013-07-16 22:41:00,78.6,65.9,30.03,SSE,158,0.0,2.9,65,0.00,,---,0.10,VWS V13.01,2013-07-17 02:41:00,
2013-07-16 22:46:00,79.0,66.2,30.03,East,90,4.7,4.7,65,0.00,,---,0.10,VWS V13.01,2013-07-17 02:46:00,
2013-07-16 22:51:00,79.0,66.2,30.03,ENE,68,0.0,4.7,65,0.00,,---,0.10,VWS V13.01,2013-07-17 02:51:00,
2013-07-16 22:56:00,79.0,66.2,30.02,ENE,68,0.0,5.1,65,0.00,,---,0.10,VWS V13.01,2013-07-17 02:56:00,
2013-07-16 23:01:00,79.0,66.2,30.02,ENE,68,0.0,0.0,65,0.00,,---,0.10,VWS V13.01,2013-07-17 03:01:00,
2013-07-16 23:06:00,79.0,66.2,30.02,East,90,0.0,0.0,65,0.00,,---,0.10,VWS V13.01,2013-07-17 03:06:00,
2013-07-16 23:11:00,79.0,66.2,30.02,NE,45,0.0,0.0,65,0.00,,---,0.10,VWS V13.01,2013-07-17 03:11:00,
2013-07-16 23:16:00,79.0,66.2,30.03,East,90,0.0,0.0,65,0.00,,---,0.10,VWS V13.01,2013-07-17 03:16:00,
2013-07-16 23:21:00,78.6,65.9,30.03,ENE,68,0.0,0.0,65,0.00,,---,0.10,VWS V13.01,2013-07-17 03:21:00,
2013-07-16 23:26:00,78.6,66.3,30.03,NNE,22,0.0,0.0,66,0.00,,---,0.10,VWS V13.01,2013-07-17 03:26:00,
2013-07-16 23:31:00,78.6,66.3,30.03,ENE,68,1.8,3.1,66,0.00,,---,0.10,VWS V13.01,2013-07-17 03:31:00,
2013-07-16 23:36:00,78.6,66.8,30.03,SE,135,0.0,4.0,67,0.00,,---,0.10,VWS V13.01,2013-07-17 03:36:00,
2013-07-16 23:41:00,78.8,66.9,30.02,ESE,112,0.0,4.0,67,0.00,,---,0.10,VWS V13.01,2013-07-17 03:41:00,
2013-07-16 23:46:00,79.0,67.5,30.03,East,90,0.0,4.0,68,0.00,,---,0.10,VWS V13.01,2013-07-17 03:46:00,
2013-07-16 23:51:00,79.0,67.5,30.03,ENE,68,0.0,4.0,68,0.00,,---,0.10,VWS V13.01,2013-07-17 03:51:00,
2013-07-16 23:56:00,79.0,67.5,30.02,East,90,0.0,4.0,68,0.00,,---,0.10,VWS V13.01,2013-07-17 03:56:00,